Regional Weather Roundup
Issued by NWS

Home | Current Version | Previous Version | Text Only | Print | Product List | Glossary On
Versions: 1 2 3 4 5 6 7 8 9 10 11 12 13 14 15 16 17 18 19 20 21 22 23 24 25 26 27 28 29 30 31 32 33 34 35 36 37 38 39 40 41 42 43 44 45 46 47 48 49 50
000
ASUS44 KEWX 041610
RWRTX
SOUTH TEXAS REGIONAL WEATHER ROUNDUP
NATIONAL WEATHER SERVICE AUSTIN/SAN ANTONIO TX
1000 AM CST WED MAR 04 2015

NOTE: "FAIR" INDICATED FEW OR NO CLOUDS BELOW 12,000 FEET WITH NO
SIGNIFICANT WEATHER AND/OR OBSTRUCTIONS TO VISIBILITY.

* - THESE STATIONS ARE NOT NWS OR FAA STATIONS...AND ARE NOT SUBJECT
    TO NWS AND FAA QUALITY CONTROL.

TXZ171-172-183>190-041700-
TEXAS HILL COUNTRY AND EDWARDS PLATEAU

CITY           SKY/WX    TMP DP  RH WIND       PRES   REMARKS
JUNCTION       FOG       56  55  97 CALM      29.88R VSB 1/2
*LLANO         CLOUDY    63  63 100 CALM      29.90R
BURNET         CLOUDY    63  62  97 S6        29.88R FOG
*HORSESHOE BAY CLOUDY   N/A N/A N/A CALM      29.86R FOG
*KERRVILLE     FOG       61  60  96 CALM      29.87R VSB 3/4
*FREDERICKSBRG CLOUDY    60  60  98 S3        29.87R FOG
*ROCKSPRINGS   FOG       57  57 100 CALM      29.90R VSB<1/4
*BOERNE STAGE  CLOUDY    63  61  94 S6        29.87S VSB 1/4
*CASTROVILLE   LGT RAIN  64  64 100 SE3       29.87R VSB 3/4
HONDO          CLOUDY    65  63  93 S9        29.87R FOG
*UVALDE        CLOUDY    62  62 100 S5        29.86R FOG
DEL RIO        CLOUDY    59  54  83 W9        29.88R
LAUGHLIN AFB   NOT AVBL
CARRIZO SPRGS  CLOUDY    59  59 100 NW3       29.85R FOG
$$

TXZ173-191>194-202-209-217>225-228-041700-
CENTRAL AND SOUTH CENTRAL TEXAS

CITY           SKY/WX    TMP DP  RH WIND       PRES   REMARKS
GEORGETOWN     CLOUDY    63  61  94 CALM      29.87R FOG
AUSTIN/BERGSTM CLOUDY    63  63 100 CALM      29.85S FOG
AUSTIN/MABRY   LGT RAIN  63  63 100 CALM      29.87R VSB 1/2
*AUSTIN/EXEC   FOG       64  64 100 SE6       29.86F VSB 1
*LAGO VISTA    DRZL/FOG  64  63  94 SE5       29.87S VSB 1/4
SAN MARCOS     FOG      N/A N/A N/A SE6       29.87R VSB 1/2
NEW BRAUNFELS  CLOUDY    67  65  93 S8        29.85R FOG
RANDOLPH AFB   NOT AVBL
PT SAN ANTONIO NOT AVBL
SAN ANTONIO    FOG       67  64  90 S7        29.86R VSB 1
STINSON FIELD  CLOUDY    65  64  97 SE3       29.85R FOG
*PLEASANTON    CLOUDY    66  65  97 S5        29.87R FOG
*LA GRANGE     PTSUNNY   74  69  86 S12       29.85S
*GIDDINGS      PTSUNNY   71  67  85 S12G18    29.89F HAZE
*GONZALES      CLOUDY    70  68  95 S9G16     29.85S
$$

TXZ163>164-176>182-195>201-210>213-226-227-235-041700-
SOUTHEAST TEXAS

CITY           SKY/WX    TMP DP  RH WIND       PRES   REMARKS
COLLEGE STN    CLOUDY    71  68  90 S15       29.87S
*BRYAN         CLOUDY    70  69  96 S8        29.88R FOG
*CALDWELL      CLOUDY    66  66 100 SE7       29.89S FOG
*CROCKETT      CLOUDY    72  72 100 SE8       29.92S FOG
*BRENHAM       PTSUNNY   74  70  86 S13       29.88S FOG
HUNTSVILLE     CLOUDY    72  67  84 S10       29.90R
CONROE         CLOUDY    72  66  81 S12       29.91R
HOUSTON BUSH   CLOUDY    74  67  78 S14G21    29.91S
HOUSTON HOBBY  PTSUNNY   74  67  78 S9        29.91R
*HOUSTON SW AP CLOUDY    73  68  84 S10       29.92R
PEARLAND       PTSUNNY   75  67  76 S17       29.93R
HOUSTON HOOKS  CLOUDY    75  67  76 S12G18    29.90R
ELLINGTON FLD  PTSUNNY   73  70  88 S14       29.93R
SUGAR LAND     CLOUDY    75  67  76 S16       29.90R
*HOUSTON EXEC  CLOUDY    73  68  83 S14       29.91S
*CLEVELAND MUN   N/A     72  68  88 S13       29.94R FOG
*WHARTON       CLOUDY    73  68  83 S14       29.90S
*COLUMBUS      CLOUDY    73  69  85 S10G18    29.88S
$$

TXZ214>216-236>238-041700-
THE UPPER TEXAS COAST

CITY           SKY/WX    TMP DP  RH WIND       PRES   REMARKS
*ORANGE        CLOUDY    72  68  85 S12       29.96S
PORT ARTHUR    CLOUDY    75  67  76 S15G24    29.93S
GALVESTON      CLOUDY    68  68 100 SW7       29.93R FOG
ANGLETON       CLOUDY    73  68  84 S18       29.91R
*BAY CITY      CLOUDY    76  71  84 S15       29.90S
PALACIOS       CLOUDY    74  69  85 SE16G24   29.89R
$$

TXZ229>234-239>247-041700-
TEXAS COASTAL BEND AND RIO GRANDE PLAINS

CITY           SKY/WX    TMP DP  RH WIND       PRES   REMARKS
VICTORIA       MOSUNNY   74  70  87 SE20      29.88R FOG
*BEEVILLE      CLOUDY    71  69  95 S15       29.85R
ROCKPORT       CLOUDY    70  66  87 SE10      29.86S FOG
*PORT ARANSAS  CLOUDY    66  65  98 SE8       29.86S FOG
*PORT LAVACA   CLOUDY    67  65  93 E6        29.89S FOG
*INGLESIDE     CLOUDY   N/A N/A N/A SE12G22   29.86R HAZE
CORPUS CHRISTI CLOUDY    70  68  93 S18       29.86R FOG
CORPUS NAS     CLOUDY    69  68  96 S15       29.87R FOG
*ROBSTOWN      CLOUDY    70  70  99 CALM      29.86R FOG
ALICE          CLOUDY    69  67  93 S6        29.84R FOG
KINGSVILLE NAS CLOUDY    71  69  93 SE10      29.84R FOG
COTULLA        CLOUDY    64  62  93 CALM      29.85R FOG
*FAITH RANCH   CLOUDY    59  59 100 W6        29.86R VSB 1/2
LAREDO         LGT RAIN  61  61 100 CALM      29.87S FOG
$$

TXZ248>255-041700-
DEEP SOUTH TEXAS

CITY           SKY/WX    TMP DP  RH WIND       PRES   REMARKS
BROWNSVILLE    CLOUDY    73  69  87 S18       29.86R
PORT ISABEL    CLOUDY    73  69  87 S20       29.84S FOG
*SOUTH PADRE   MOSUNNY   68  66  94 S9        29.86S
HARLINGEN      CLOUDY    75  69  81 S21       29.84R
*HEBBRONVILLE  CLOUDY   N/A N/A N/A S3        29.86R
MCALLEN        CLOUDY    72  67  84 S13       29.85R
*WESLACO       CLOUDY    70  67  89 S14G21    29.85R FOG
FALFURRIAS     CLOUDY    71  67  85 S13       29.84R
EDINBURG       CLOUDY    74  67  77 S13       29.85R
*ZAPATA        CLOUDY    64  63  98 W8        29.86R
$$

TXZ213>215-236>238-242>244-246-247-251-254-255-041700-
CMAN STATIONS

STATION/POSITION TIME  TEMP    WIND        PRES    WAVE
                       AIR SEA DIR/SP/G            HT/PER
                 (UTC) (F)     (DEG/KT/KT) (MB)    (FT/S)
$$

GMZ080-GMZ150>470-041700-
OFFSHORE BUOY REPORTS

STATION/POSITION TIME  TEMP    WIND        PRES    WAVE
                       AIR SEA DIR/SP/G            HT/PER
                 (UTC) (F)     (DEG/KT/KT) (MB)    (FT/S)
$$



USA.gov is the U.S. government's official web portal to all federal, state and local government web resources and services.